Weather reports worldwide

Advertisment
Menorca/Mahon, Spain (8314): temperature & dewpoint: 17.10.2020 02:00:00 - 23.10.2020 02:00:00 (CEST)Menorca/Mahon, Spain (8314): wind speed: 17.10.2020 02:00:00 - 23.10.2020 02:00:00 (CEST)Menorca/Mahon, Spain (8314): wind direction: 17.10.2020 02:00:00 - 23.10.2020 02:00:00 (CEST)Menorca/Mahon, Spain (8314): reduced air pressure: 17.10.2020 02:00:00 - 23.10.2020 02:00:00 (CEST)Menorca/Mahon, Spain (8314): visibility: 17.10.2020 02:00:00 - 23.10.2020 02:00:00 (CEST)
Date & Time tt [°C] td [°C] ff [km/h] ff [kn] dd ppp [hPa] vv [km]
23.10.2020 02:00:00 19,7 18,7 4 2 S 1017,1 -
23.10.2020 01:00:00 20,1 19,1 9 5 SSE 1016,8 -
23.10.2020 00:00:00 20,5 19,5 11 6 SSE 1016,7 -
22.10.2020 23:00:00 20,4 18,5 11 6 SE 1016,3 20
22.10.2020 22:00:00 20,0 18,7 8 4 SSE 1016,8 -
22.10.2020 21:00:00 20,2 18,3 11 6 S 1016,7 -
22.10.2020 20:00:00 20,5 18,4 13 7 S 1015,8 15
22.10.2020 19:00:00 20,7 18,3 16 9 SSE 1015,4 -
22.10.2020 18:00:00 22,5 18,9 16 9 S 1015,0 -
22.10.2020 17:00:00 23,5 18,5 18 10 S 1014,8 20
22.10.2020 16:00:00 23,4 17,8 16 9 S 1014,7 -
22.10.2020 15:00:00 24,6 17,1 22 12 S 1014,9 25
22.10.2020 14:00:00 24,4 17,7 24 13 S 1015,7 20
22.10.2020 13:00:00 24,2 18,7 22 12 SSE 1016,3 -
22.10.2020 12:00:00 23,1 18,4 21 11 SSE 1016,5 -
22.10.2020 11:00:00 23,0 17,6 22 12 SE 1016,4 20
22.10.2020 10:00:00 21,7 17,0 18 10 SSE 1016,4 -
22.10.2020 09:00:00 21,1 16,5 16 9 SE 1015,8 15
22.10.2020 08:00:00 19,6 16,8 15 8 SE 1015,7 15
22.10.2020 07:00:00 19,9 17,3 15 8 SSE 1015,9 -
22.10.2020 06:00:00 20,0 17,4 15 8 SE 1015,9 -
22.10.2020 05:00:00 20,2 17,0 16 9 SE 1015,6 -
22.10.2020 04:00:00 20,2 17,4 16 9 SSE 1016,1 -
22.10.2020 03:00:00 20,4 17,4 16 9 SE 1016,2 -
22.10.2020 02:00:00 20,4 17,0 16 9 SSE 1016,2 -
22.10.2020 01:00:00 20,4 17,6 16 9 SSE 1016,5 -
22.10.2020 00:00:00 20,2 18,3 15 8 SSE 1016,6 -
21.10.2020 23:00:00 20,0 18,0 16 9 S 1016,4 6
21.10.2020 22:00:00 20,0 17,6 13 7 S 1016,1 -
21.10.2020 21:00:00 20,5 16,9 15 8 S 1015,9 -
21.10.2020 20:00:00 21,0 16,6 22 12 S 1015,4 5
21.10.2020 19:00:00 21,4 16,6 24 13 S 1014,8 -
21.10.2020 18:00:00 22,2 16,5 24 13 SSW 1014,2 -
21.10.2020 17:00:00 22,9 17,2 22 12 SSW 1013,8 7
21.10.2020 16:00:00 23,4 16,7 24 13 SSW 1013,9 -
21.10.2020 15:00:00 23,6 16,6 26 14 S 1013,9 5
21.10.2020 14:00:00 23,7 17,1 29 16 S 1014,0 7
21.10.2020 13:00:00 24,1 16,3 26 14 S 1014,6 -
21.10.2020 12:00:00 23,4 17,0 24 13 S 1014,6 -
21.10.2020 11:00:00 22,9 17,8 24 13 SSE 1014,8 17
21.10.2020 10:00:00 22,5 17,8 22 12 SSE 1014,5 -
21.10.2020 09:00:00 21,1 18,3 21 11 SSE 1014,2 17
21.10.2020 08:00:00 19,9 18,7 16 9 SE 1013,7 9
21.10.2020 07:00:00 20,1 18,8 18 10 SE 1013,7 -
21.10.2020 06:00:00 20,1 18,8 24 13 SE 1013,4 -
21.10.2020 05:00:00 19,9 18,6 26 14 SE 1013,5 -
21.10.2020 04:00:00 19,7 18,4 28 15 SE 1013,9 -
21.10.2020 03:00:00 19,7 18,3 26 14 SE 1014,6 -
21.10.2020 02:00:00 19,7 18,4 28 15 SE 1014,8 -
21.10.2020 01:00:00 19,7 18,4 28 15 SE 1015,1 -
21.10.2020 00:00:00 19,6 18,1 29 16 SE 1015,6 -
20.10.2020 23:00:00 19,4 17,9 26 14 SE 1015,9 10
20.10.2020 22:00:00 19,5 18,0 26 14 SE 1016,0 -
20.10.2020 21:00:00 19,6 17,9 24 13 SE 1016,4 -
20.10.2020 20:00:00 19,6 17,7 24 13 SE 1016,3 15
20.10.2020 19:00:00 19,9 17,9 22 12 SE 1016,2 -
20.10.2020 18:00:00 21,1 17,7 26 14 SE 1016,6 -
20.10.2020 17:00:00 22,1 17,6 24 13 SE 1017,2 20
20.10.2020 16:00:00 22,2 16,9 28 15 SE 1017,6 -
20.10.2020 15:00:00 21,9 17,3 26 14 SSE 1018,4 25
20.10.2020 14:00:00 22,4 16,5 29 16 SSE 1018,7 25
20.10.2020 13:00:00 21,8 16,5 29 16 SE 1019,3 -
20.10.2020 12:00:00 21,2 16,1 28 15 SE 1019,6 -
20.10.2020 11:00:00 20,7 15,4 28 15 SE 1019,7 30
20.10.2020 10:00:00 19,9 15,0 24 13 SE 1019,5 -
20.10.2020 09:00:00 17,7 13,6 18 10 SE 1019,5 30
20.10.2020 08:00:00 15,5 12,8 13 7 ESE 1019,6 30
20.10.2020 07:00:00 15,6 13,1 13 7 ESE 1019,6 -
20.10.2020 06:00:00 15,5 13,2 11 6 ESE 1019,9 -
20.10.2020 05:00:00 15,9 13,3 15 8 SE 1019,7 -
20.10.2020 04:00:00 16,1 13,1 15 8 SE 1020,0 -
20.10.2020 03:00:00 15,7 12,5 13 7 SE 1020,8 -
20.10.2020 02:00:00 16,0 12,4 15 8 SE 1021,1 -
20.10.2020 01:00:00 15,7 12,4 13 7 SE 1021,3 -
20.10.2020 00:00:00 15,7 12,1 13 7 SE 1021,7 -
19.10.2020 23:00:00 16,1 12,3 15 8 SE 1021,7 25
19.10.2020 22:00:00 16,2 12,2 13 7 SE 1021,8 -
19.10.2020 21:00:00 16,6 12,1 15 8 SE 1021,8 -
19.10.2020 20:00:00 16,7 11,8 13 7 SE 1021,6 25
19.10.2020 19:00:00 17,7 12,2 13 7 SE 1021,3 -
19.10.2020 18:00:00 19,7 12,1 18 10 SE 1021,3 -
19.10.2020 17:00:00 20,2 11,6 21 11 SE 1021,5 30
19.10.2020 16:00:00 20,7 12,3 18 10 SSE 1021,6 -
19.10.2020 15:00:00 20,9 12,1 18 10 SSE 1022,0 30
19.10.2020 14:00:00 20,7 12,4 16 9 SSE 1022,9 30
19.10.2020 13:00:00 21,0 12,1 18 10 SSE 1023,3 -
19.10.2020 12:00:00 20,7 12,1 16 9 SSE 1023,5 -
19.10.2020 11:00:00 19,5 11,3 15 8 SSE 1023,2 30
19.10.2020 10:00:00 17,7 12,2 8 4 SSE 1023,2 -
19.10.2020 09:00:00 16,0 11,6 9 5 SE 1022,5 25
19.10.2020 08:00:00 10,5 9,1 5 3 E 1022,6 25
19.10.2020 07:00:00 11,5 10,4 8 4 E 1022,4 -
19.10.2020 06:00:00 10,5 8,9 8 4 ESE 1022,5 -
19.10.2020 05:00:00 10,6 9,0 8 4 SE 1022,6 -
19.10.2020 04:00:00 10,5 8,8 8 4 SE 1022,8 -
19.10.2020 03:00:00 11,2 9,1 5 3 SSE 1023,0 -
19.10.2020 02:00:00 11,3 9,4 8 4 SSE 1023,0 -
19.10.2020 01:00:00 12,5 10,7 8 4 SSE 1022,9 -
19.10.2020 00:00:00 11,3 9,4 8 4 SSE 1023,0 -
18.10.2020 23:00:00 12,0 9,6 8 4 SE 1022,8 25
18.10.2020 22:00:00 13,6 9,2 9 5 SE 1022,5 -
18.10.2020 21:00:00 15,0 10,0 9 5 ESE 1022,4 -
18.10.2020 20:00:00 15,3 10,1 9 5 E 1022,3 22
18.10.2020 19:00:00 17,1 10,5 8 4 E 1021,7 -
18.10.2020 18:00:00 19,7 9,3 9 5 SE 1021,5 -
18.10.2020 17:00:00 20,6 10,7 13 7 SW 1021,2 30
18.10.2020 16:00:00 20,2 11,7 15 8 SW 1021,3 -
18.10.2020 15:00:00 20,1 11,9 4 2 W 1021,3 30
18.10.2020 14:00:00 20,1 11,2 4 2 SW 1021,7 30
18.10.2020 13:00:00 19,6 11,5 11 6 NE 1021,9 -
18.10.2020 12:00:00 20,4 10,6 5 3 N 1021,9 -
18.10.2020 11:00:00 19,0 11,4 9 5 N 1021,7 30
18.10.2020 10:00:00 18,1 11,3 8 4 N 1021,1 -
18.10.2020 09:00:00 14,8 11,0 9 5 N 1020,8 30
18.10.2020 08:00:00 10,1 8,5 9 5 N 1020,3 30
18.10.2020 07:00:00 11,2 8,9 11 6 N 1020,0 -
18.10.2020 06:00:00 12,0 9,0 13 7 NNW 1019,6 -
18.10.2020 05:00:00 11,1 8,8 11 6 N 1019,4 -
18.10.2020 04:00:00 9,8 8,1 8 4 NNW 1019,6 -
18.10.2020 03:00:00 10,5 8,4 8 4 N 1019,5 -
18.10.2020 02:00:00 10,8 8,6 8 4 N 1019,5 -
18.10.2020 01:00:00 10,7 8,3 8 4 N 1019,6 -
18.10.2020 00:00:00 12,3 8,4 9 5 N 1019,5 -
17.10.2020 23:00:00 12,2 8,3 9 5 NNW 1019,4 25
17.10.2020 22:00:00 13,8 8,1 9 5 NNW 1018,9 -
17.10.2020 21:00:00 13,5 7,8 8 4 NNW 1018,7 -
17.10.2020 20:00:00 14,0 8,8 8 4 NW 1018,2 25
17.10.2020 19:00:00 16,3 8,0 8 4 NW 1017,4 -
17.10.2020 18:00:00 18,6 7,3 11 6 WNW 1016,9 -
17.10.2020 17:00:00 19,9 6,6 15 8 W 1016,6 25
17.10.2020 16:00:00 20,1 8,1 16 9 W 1016,5 -
17.10.2020 15:00:00 20,0 9,0 18 10 WSW 1016,8 25
17.10.2020 14:00:00 18,2 10,0 11 6 NW 1017,1 25
17.10.2020 13:00:00 18,2 11,6 15 8 NNW 1017,4 -
17.10.2020 12:00:00 17,6 11,2 16 9 NW 1017,4 -
17.10.2020 11:00:00 16,9 12,7 15 8 NW 1017,0 20
17.10.2020 10:00:00 16,6 11,8 13 7 WNW 1016,6 -
17.10.2020 09:00:00 14,4 12,6 8 4 NNE 1016,0 20
17.10.2020 08:00:00 13,4 11,4 9 5 ENE 1015,8 20
17.10.2020 07:00:00 13,6 11,6 13 7 NE 1015,7 -
17.10.2020 06:00:00 14,2 11,5 9 5 NE 1015,9 -
17.10.2020 05:00:00 13,8 11,3 9 5 ENE 1016,0 -
17.10.2020 04:00:00 12,9 10,1 11 6 ENE 1016,3 -
17.10.2020 03:00:00 12,2 9,3 11 6 ENE 1017,0 -
17.10.2020 02:00:00 11,8 8,5 8 4 E 1017,6 -

tt = temperature
td = dewpoint
ff = wind speed
dd = wind direction
ppp = reduced air pressure
vv = visibility

Next stations